DECAYED

STARLINK-1822, 46719 (Decayed)

Orbit data source: Space-Track

STARLINK-1822, 46719 was a payload satellite owned by SpaceX/Seattle (US) in LEO that was launched on Sun, 18 Oct 2020 UTC via an FALCON 9 launch vehicle from the Air Force Eastern Test Range (AFETR). Payload-class satellites include a variety of spacecraft equipped with specific instruments for various scientific and technological missions. These include communications satellites like Starlink; space stations such as the ISS; scientific satellites like the Hubble; Earth observation satellites from companies like Planet Labs, Umbra, and HawkEye 360; GPS; miniature CubeSats for education and research; and military/defense satellites.

Not visible in the next 10 days
Identifier
46719, 2020-073BB
Orbit
Decayed
Country
Flag of USUS
Related business
Manufacturer
SpaceX/Seattle
Mission
Decayed Commercial Communications
Bus & Motor
STARLINK, Unknown motor
Mass
260 kg wet, ~248 kg dry
Launch date (UTC)
2020-10-18 (5 years ago)
Launch vehicle
FALCON 9
Launch site
Air Force Eastern Test Range (AFETR)
Object type
Payload
Rocket body
Debris
Shape & HBR
Box + 1 Pan, 10.1 m
Radar Cross Section
13.562 m², Large (>1 m²)

Expand to show TLE details & history
Last TLE update: 5 months ago

TLE from 5 months ago
0 STARLINK-1822
1 46719U 20073BB  25246.03661019  .14348146  12566-4  37998-3 0  9998
2 46719  53.0246 287.7712 0003954 315.1740  44.8989 16.45617796269916
Epoch: 2025-09-03T00:52Z
TLE epoch observation values (Epoch: 2025-09-03T00:52:43.120Z)
Latitude
Longitude
-67.82772°
Altitude
150.002 km
Speed
7.819 km/s
True Right ascension
19h 11m 05s
True Declination
0° 00' 00"
Sunlit
Object was in full shadow at epoch
Visualization orbit readout
Latitude
Unknown
Longitude
Unknown
Altitude
Unknown
Speed
Unknown
Apparent Right ascension
Unknown
Apparent Declination
Unknown
Sunlit
N/A
Visualization observer readout
Local Sidereal Time
04:01:42
Azimuth
Unknown
Elevation
Unknown
Doppler factor
Unknown
Orbital elements
Apogee altitude
153.774 km
Perigee altitude
148.611 km
Semi-major axis
6,529.33 km
Eccentricity
0.0004
Inclination
53.0246°
RAAN
287.7712°
Arg. of periapsis
315.174°
True anomaly
44.93089°
Mean anomaly
44.8989°
Eccentric anomaly
44.9149°
Mean motion
4.11377 °/min
Orbital period
87.51 mins
BSTAR
0.00037998
Loading maneuver chart data...
Computing Atmospheric mass density...
Loading historical data...
Loading historical data...
Loading historical data...
Loading historical data...
Loading historical data...
Loading historical data...
Loading historical data...

Documentation

Showing up to 5 results
|